Location: Famechon
(49.7599°N, 2.0615°E)
Time: 06:53:53
(UTC+00:00)

Cosmos 1825 - Pass Details

Date: 03 February 2023
Orbit: 480 x 487 km, 82.5° (Epoch: 30 March)

Event Time Altitude Azimuth Distance (km) Brightness Sun altitude
Rises 18:09:54 0° 179° (S) 2,572 5.9 -13.2°
Reaches altitude 10° 18:12:01 10° 175° (S) 1,696 4.9 -13.5°
Maximum altitude 18:15:40 59° 96° (E) 585 2.1 -14.1°
Drops below altitude 10° 18:19:22 10° 17° (NNE) 1,716 4.6 -14.7°
Enters shadow 18:21:21 - 14° (NNE) 2,533 5.5 -15.0°
